This is the latest recevied weather packets stored in our database for station/object SR6WVX. If no packets are shown the sender has not sent any weather packets the latest 10 day(s).
| Time | Temp. | Humidity | Pressure | Rain* | Wind** | Luminosity | Snow |
|---|---|---|---|---|---|---|---|
| 1777451972 | 13.33° C | 27% | 1024.3 hPa | 0 mm | - | - | - |
| 1777451672 | 12.78° C | 29% | 1024.2 hPa | 0 mm | - | - | - |
| 1777451371 | 12.22° C | 28% | 1024.3 hPa | 0 mm | - | - | - |
| 1777451071 | 12.78° C | 27% | 1024.2 hPa | 0 mm | - | - | - |
| 1777450771 | 12.78° C | 28% | 1024.2 hPa | 0 mm | - | - | - |
| 1777450470 | 12.78° C | 28% | 1024.1 hPa | 0 mm | - | - | - |
| 1777450170 | 12.78° C | 29% | 1024.2 hPa | 0 mm | - | - | - |
| 1777449870 | 12.22° C | 29% | 1024.3 hPa | 0 mm | - | - | - |
| 1777449570 | 12.22° C | 30% | 1024.3 hPa | 0 mm | - | - | - |
| 1777449269 | 11.67° C | 31% | 1024.2 hPa | 0 mm | - | - | - |
| 1777448969 | 11.67° C | 31% | 1024.2 hPa | 0 mm | - | - | - |
| 1777448669 | 11.67° C | 31% | 1024.2 hPa | 0 mm | - | - | - |
| 1777448369 | 11.67° C | 33% | 1024.3 hPa | 0 mm | - | - | - |
| 1777448068 | 11.67° C | 32% | 1023.9 hPa | 0 mm | - | - | - |
| 1777447768 | 12.22° C | 31% | 1023.9 hPa | 0 mm | - | - | - |
| 1777447468 | 12.22° C | 33% | 1024 hPa | 0 mm | - | - | - |
| 1777447168 | 12.22° C | 35% | 1024 hPa | 0 mm | - | - | - |
| 1777446867 | 12.22° C | 34% | 1023.9 hPa | 0 mm | - | - | - |
| 1777446567 | 11.67° C | 35% | 1023.9 hPa | 0 mm | - | - | - |
| 1777446267 | 11.67° C | 36% | 1024 hPa | 0 mm | - | - | - |
| 1777445966 | 11.11° C | 37% | 1024.1 hPa | 0 mm | - | - | - |
| 1777445666 | 10.56° C | 37% | 1023.7 hPa | 0 mm | - | - | - |
| 1777445366 | 10.56° C | 37% | 1023.8 hPa | 0 mm | - | - | - |
| 1777445066 | 10° C | 38% | 1023.9 hPa | 0 mm | - | - | - |
| 1777444765 | 10° C | 38% | 1023.5 hPa | 0 mm | - | - | - |
* Rain latest hour (hover to see other rain measurements)
** Current wind speed in m/s (hover to see current wind gust speed)